This demonstration page uses our WeatherBlox Daily Observations layout. Learn more.

Left ArrowRight Arrow

39.08367, -84.50855

Hourly Observations for March 23, 2019

Temp ( °F °C ) Dew Point ( °F °C ) Humidity (%) Winds ( mph kmh ) Pressure ( in mb ) Visibility ( mi km ) Precip ( " mm )
12:53 am 00:53 Clear 37 2.8 24 -4.4 59 59 NW 7 11 30.22 1023 10 16 N/A
1:53 am 01:53 Clear 36 2.2 24 -4.4 62 62 VRB 5 7 30.23 1024 10 16 N/A
2:53 am 02:53 Clear 34 1.1 24 -4.4 67 67 VRB 6 9 30.24 1024 10 16 N/A
3:53 am 03:53 Clear 33 0.6 23 -5 66 66 VRB 5 7 30.25 1025 10 16 N/A
4:53 am 04:53 Clear 29 -1.7 23 -5 78 78 NNE 5 7 30.26 1025 10 16 N/A
5:53 am 05:53 Clear 30 -1.1 23 -5 75 75 N N/A 30.28 1025 10 16 N/A
6:53 am 06:53 Clear 27 -2.8 23 -5 85 85 E 3 6 30.30 1026 10 16 N/A
7:53 am 07:53 Sunny 27 -2.8 24 -4.4 89 89 VRB 5 7 30.32 1027 10 16 N/A
8:53 am 08:53 Sunny 30 -1.1 28 -2.2 92 92 N N/A 30.34 1028 10 16 N/A
9:53 am 09:53 Sunny 35 1.7 26 -3.3 70 70 ESE 5 7 30.37 1028 10 16 N/A
10:53 am 10:53 Sunny 39 3.9 26 -3.3 60 60 VRB 3 6 30.38 1029 10 16 N/A
11:53 am 11:53 Sunny 44 6.7 25 -3.9 47 47 W 3 6 30.38 1029 10 16 N/A
12:53 pm 12:53 Sunny 47 8.3 22 -5.6 37 37 N N/A 30.37 1028 10 16 N/A
1:53 pm 13:53 Sunny 51 10.6 21 -6.1 31 31 VRB 3 6 30.35 1028 10 16 N/A
2:53 pm 14:53 Sunny 54 12.2 20 -6.7 26 26 VRB 3 6 30.33 1027 10 16 N/A
3:53 pm 15:53 Sunny 54 12.2 20 -6.7 26 26 VRB 3 6 30.31 1027 10 16 N/A
4:53 pm 16:53 Sunny 55 12.8 20 -6.7 25 25 VRB 3 6 30.29 1026 10 16 N/A
5:53 pm 17:53 Sunny 58 14.4 18 -7.8 21 21 N N/A 30.29 1026 10 16 N/A
6:53 pm 18:53 Sunny 56 13.3 21 -6.1 26 26 N N/A 30.29 1026 10 16 N/A
7:53 pm 19:53 Clear 51 10.6 22 -5.6 32 32 N N/A 30.28 1026 10 16 N/A
8:53 pm 20:53 Clear 43 6.1 31 -0.6 63 63 N N/A 30.29 1026 10 16 N/A
9:53 pm 21:53 Clear 41 5 31 -0.6 67 67 N N/A 30.30 1026 10 16 N/A
10:53 pm 22:53 Clear 39 3.9 30 -1.1 70 70 N N/A 30.30 1026 10 16 N/A
11:53 pm 23:53 Clear 37 2.8 29 -1.7 73 73 N N/A 30.28 1026 10 16 N/A

Powered by AerisWeather